Other Public Products
Issued by NWS Charleston, SC

Current Version | Previous Version | Graphics & Text | Print | Product List | Glossary On
Versions: 1 2 3 4 5 6 7 8 9 10 11 12 13 14 15 16 17 18 19 20 21 22 23 24 25 26 27 28 29 30 31 32 33 34 35 36 37 38 39 40 41 42 43 44 45 46 47 48 49 50
116
FPUS82 KCHS 272012
OPUCHS

TEST...KCHS/KSAV Gateway Observations...TEST
National Weather Service Charleston SC
400 PM EDT TUE JUN 27 2017

NOTE: "fair" indicates few or no clouds below 12,000 feet with no
significant weather and/or obstructions to visibility.

SCZ050-WAZ558-NCZ071-TXZ119-213-PAZ071-DCZ001-FLZ074-172-MI076-
NYZ176-178-MAZ016-IL014-TNZ027-NJZ106-GAZ044-MD014-272100-

...Gateway Observations for Charleston International...

CITY           SKY/WX    TMP DP  RH WIND       PRES   REMARKS
Chas Airport   PTSUNNY   85  61  44 S8        30.00F
Seattle        CLOUDY    63  50  62 VRB6      30.07S
Charlotte      CLOUDY    83  55  38 NE8       30.08S
Dallas DFW     CLOUDY    90  70  51 E8        29.95F HX  95
Dallas Love    PTSUNNY   90  68  48 VRB6      29.96S THUNDER HX  94
Philladelphia  PTSUNNY   80  48  32 W16       29.95F
Wash National  LGT RAIN  74  55  51 N13       30.00R
Baltimore      PTSUNNY   79  49  34 W14G22    29.97F
Miami          CLOUDY    82  74  76 N6        29.99F
Detroit        PTSUNNY   74  45  35 W12       30.05F
Newark         PTSUNNY   78  55  44 SW12G25   29.93S
Laguardia      PTSUNNY   78  53  41 SW14G22   29.92S
J F K          PTSUNNY   74  61  63 S13       29.96R
Boston Logan   PTSUNNY   75  54  47 S25G33    29.91F
Ft. Lauderdale CLOUDY    83  72  69 SE3       29.96F
Chicago O`Hare MOSUNNY   73  43  33 CALM      30.07F
Chicago Midway PTSUNNY   75  46  35 W10       30.08F
Houston Bush   LGT RAIN  77  73  87 SE9       29.98F
Houston Hobby  LGT RAIN  82  74  76 S7        29.98S
Nashville      PTSUNNY   83  55  38 E6        30.10F
Atlanta        MOSUNNY   84  56  38 N10       30.06F

$$

GAZ044-118-TXZ119-213-NCZ071-DCZ001-MDZ014-506-PAZ021-071-NJZ106-
NYZ176-178-MAZ106-OHZ011-021-055-MIZ076-KYZ091-ILZ014-INZ047-
MNZ060-ONZ431-272100-

...Gateway Observations for Savannah International...

CITY           SKY/WX    TMP DP  RH WIND       PRES   REMARKS
Savannah Arpt  CLOUDY    81  70  69 SE9       30.01F
Atlanta        MOSUNNY   84  56  38 N10       30.06F
Charlotte      CLOUDY    83  55  38 NE8       30.08S
Dallas DFW     CLOUDY    90  70  51 E8        29.95F HX  95
Houston Bush   LGT RAIN  77  73  87 SE9       29.98F
Wash National  LGT RAIN  74  55  51 N13       30.00R
Wash Dulles    PTSUNNY   78  45  30 NW12      30.00S
Baltimore      PTSUNNY   79  49  34 W14G22    29.97F
Philadelphia   PTSUNNY   80  48  32 W16       29.95F
Newark         PTSUNNY   78  55  44 SW12G25   29.93S
Laguardia      PTSUNNY   78  53  41 SW14G22   29.92S
J F K          PTSUNNY   74  61  63 S13       29.96R
Boston         PTSUNNY   75  54  47 S25G33    29.91F
Pittsburg      PTSUNNY   68  48  48 W13G21    30.07S
Akron          PTSUNNY   69  45  41 NW12G18   30.09S
Cleveland      MOSUNNY   70  46  42 W13G21    30.10F
Cincinnati     PTSUNNY   71  50  47 N6        30.12F
Columbus       MOSUNNY   71  47  42 W9        30.10F
Detroit        PTSUNNY   74  45  35 W12       30.05F
Chicago O`Hare MOSUNNY   73  43  33 CALM      30.07F
Minneapolis    PTSUNNY   75  40  28 S15G23    29.96F
Indianapolis   MOSUNNY   72  46  39 CALM      30.12F
Toronto Canada PTSUNNY   64  52  63 NW16G25   29.94S

$$




USA.gov is the U.S. government's official web portal to all federal, state and local government web resources and services.